Time,TemperatureF,DewpointF,PressureIn,WindDirection,WindDirectionDegrees,WindSpeedMPH,WindSpeedGustMPH,Humidity,HourlyPrecipIn,Conditions,Clouds,dailyrainin,SolarRadiationWatts/m^2,SoftwareType,DateUTC
2013-07-31 00:22:00,58.0,56.0,30.10,ESE,113,0.0,0.0,92,0.00,,,0.01,0.000000,,2013-07-31 04:22:00,
2013-07-31 00:32:00,58.0,56.0,30.10,ESE,113,0.0,0.0,92,0.00,,,0.01,0.000000,,2013-07-31 04:32:00,
2013-07-31 00:42:00,58.0,56.0,30.10,ESE,113,0.0,0.0,93,0.00,,,0.01,0.000000,,2013-07-31 04:42:00,
2013-07-31 00:52:00,58.0,56.0,30.10,ESE,113,0.0,0.0,93,0.00,,,0.01,0.000000,,2013-07-31 04:52:00,
2013-07-31 01:02:00,57.0,55.0,30.09,ESE,113,0.0,0.0,94,0.00,,,0.01,0.000000,,2013-07-31 05:02:00,
2013-07-31 01:12:00,57.0,56.0,30.09,ESE,113,0.0,0.0,95,0.00,,,0.01,0.000000,,2013-07-31 05:12:00,
2013-07-31 01:22:00,57.0,56.0,30.08,ESE,113,0.0,0.0,95,0.00,,,0.01,0.000000,,2013-07-31 05:22:00,
2013-07-31 01:32:00,57.0,56.0,30.08,ESE,113,0.0,0.0,95,0.00,,,0.01,0.000000,,2013-07-31 05:32:00,
2013-07-31 01:42:00,57.0,56.0,30.08,ESE,119,0.0,0.0,95,0.00,,,0.01,0.000000,,2013-07-31 05:42:00,
2013-07-31 01:52:00,58.0,57.0,30.08,SE,132,0.0,0.0,95,0.00,,,0.01,0.000000,,2013-07-31 05:52:00,
2013-07-31 02:02:00,59.0,57.0,30.08,SE,140,0.0,1.0,94,0.00,,,0.01,0.000000,,2013-07-31 06:02:00,
2013-07-31 02:12:00,59.0,57.0,30.08,SE,140,0.0,1.0,93,0.00,,,0.01,0.000000,,2013-07-31 06:12:00,
2013-07-31 02:32:00,60.0,57.0,30.08,SE,136,0.0,4.0,91,0.00,,,0.01,0.000000,,2013-07-31 06:32:00,
2013-07-31 02:43:00,60.0,57.0,30.07,SE,137,0.0,1.0,90,0.00,,,0.01,0.000000,,2013-07-31 06:43:00,
2013-07-31 02:53:00,60.0,57.0,30.06,SE,136,0.0,0.0,90,0.00,,,0.01,0.000000,,2013-07-31 06:53:00,
2013-07-31 03:02:00,60.0,57.0,30.06,SE,136,0.0,0.0,91,0.00,,,0.01,0.000000,,2013-07-31 07:02:00,
2013-07-31 03:12:00,60.0,57.0,30.06,SE,136,0.0,0.0,91,0.00,,,0.01,0.000000,,2013-07-31 07:12:00,
2013-07-31 03:22:00,60.0,57.0,30.06,SE,136,0.0,0.0,91,0.00,,,0.01,0.000000,,2013-07-31 07:22:00,
2013-07-31 03:32:00,60.0,57.0,30.06,SE,138,0.0,0.0,91,0.00,,,0.01,0.000000,,2013-07-31 07:32:00,
2013-07-31 03:43:00,60.0,57.0,30.06,SE,135,0.0,0.0,91,0.00,,,0.01,0.000000,,2013-07-31 07:43:00,
2013-07-31 03:52:00,61.0,58.0,30.06,East,93,0.0,0.0,90,0.00,,,0.01,0.000000,,2013-07-31 07:52:00,
2013-07-31 04:02:00,61.0,58.0,30.06,East,84,0.0,1.0,90,0.00,,,0.01,0.000000,,2013-07-31 08:02:00,
2013-07-31 04:12:00,61.0,58.0,30.06,East,87,0.0,0.0,90,0.00,,,0.01,0.000000,,2013-07-31 08:12:00,
2013-07-31 04:53:00,60.0,57.0,30.06,East,87,0.0,0.0,91,0.00,,,0.01,0.000000,,2013-07-31 08:53:00,
2013-07-31 05:02:00,60.0,57.0,30.06,East,88,0.0,0.0,91,0.00,,,0.01,0.000000,,2013-07-31 09:02:00,
2013-07-31 05:32:00,60.0,57.0,30.05,East,91,0.0,1.0,91,0.00,,,0.01,0.000000,,2013-07-31 09:32:00,
2013-07-31 05:43:00,60.0,58.0,30.05,SE,124,0.0,0.0,92,0.00,,,0.01,0.000000,,2013-07-31 09:43:00,
2013-07-31 06:44:00,60.0,57.0,30.05,SE,138,0.0,0.0,91,0.00,,,0.01,0.000000,,2013-07-31 10:44:00,
2013-07-31 06:52:00,60.0,58.0,30.05,SE,138,0.0,0.0,92,0.00,,,0.01,0.000000,,2013-07-31 10:52:00,
2013-07-31 08:02:00,62.0,59.0,30.05,South,190,0.0,5.0,91,0.00,,,0.01,81.000000,,2013-07-31 12:02:00,
2013-07-31 08:33:00,62.0,59.0,30.05,South,187,0.0,1.0,91,0.00,,,0.01,141.000000,,2013-07-31 12:33:00,
2013-07-31 08:43:00,63.0,60.0,30.05,SE,142,4.0,9.0,89,0.00,,,0.01,148.000000,,2013-07-31 12:43:00,
2013-07-31 08:52:00,63.0,60.0,30.05,SE,134,4.0,9.0,89,0.00,,,0.01,137.000000,,2013-07-31 12:52:00,
2013-07-31 09:33:00,68.0,62.0,30.05,SW,216,5.0,14.0,80,0.00,,,0.01,234.000000,,2013-07-31 13:33:00,
2013-07-31 10:43:00,71.0,63.0,30.03,South,173,5.0,11.0,76,0.00,,,0.01,747.000000,,2013-07-31 14:43:00,
2013-07-31 10:53:00,72.0,64.0,30.03,WSW,242,4.0,11.0,75,0.00,,,0.01,724.000000,,2013-07-31 14:53:00,
2013-07-31 11:12:00,71.0,63.0,30.01,SSW,205,5.0,9.0,75,0.00,,,0.01,490.000000,,2013-07-31 15:12:00,
2013-07-31 11:33:00,74.0,64.0,30.01,SW,234,6.0,10.0,72,0.00,,,0.01,933.000000,,2013-07-31 15:33:00,
2013-07-31 11:43:00,73.0,64.0,30.01,WSW,238,10.0,12.0,73,0.00,,,0.01,949.000000,,2013-07-31 15:43:00,
2013-07-31 11:52:00,71.0,62.0,30.00,SW,230,6.0,12.0,73,0.00,,,0.01,292.000000,,2013-07-31 15:52:00,
2013-07-31 12:02:00,72.0,63.0,30.00,SSW,211,9.0,14.0,74,0.00,,,0.01,323.000000,,2013-07-31 16:02:00,
2013-07-31 12:12:00,72.0,63.0,30.00,SW,234,0.0,14.0,73,0.00,,,0.01,329.000000,,2013-07-31 16:12:00,
2013-07-31 12:44:00,73.0,63.0,29.99,SW,231,6.0,12.0,70,0.00,,,0.01,893.000000,,2013-07-31 16:44:00,
2013-07-31 12:52:00,74.0,64.0,29.99,SW,225,0.0,12.0,70,0.00,,,0.01,947.000000,,2013-07-31 16:52:00,
2013-07-31 13:53:00,72.0,65.0,29.96,NW,317,6.0,9.0,79,0.00,,,0.01,334.000000,,2013-07-31 17:53:00,
2013-07-31 14:32:00,72.0,64.0,29.95,West,263,0.0,5.0,76,0.00,,,0.01,517.000000,,2013-07-31 18:32:00,
2013-07-31 14:43:00,74.0,63.0,29.94,SW,229,0.0,12.0,68,0.00,,,0.01,487.000000,,2013-07-31 18:43:00,
2013-07-31 14:52:00,74.0,63.0,29.94,SW,217,5.0,11.0,69,0.00,,,0.01,541.000000,,2013-07-31 18:52:00,
2013-07-31 16:22:00,75.0,63.0,29.91,SW,217,9.0,15.0,67,0.00,,,0.00,367.000000,,2013-07-31 20:22:00,
2013-07-31 17:02:00,76.0,63.0,29.89,SSW,209,6.0,14.0,64,0.00,,,0.00,612.000000,,2013-07-31 21:02:00,
2013-07-31 17:32:00,77.0,63.0,29.88,South,189,11.0,16.0,62,0.00,,,0.00,390.000000,,2013-07-31 21:32:00,
2013-07-31 18:43:00,69.0,65.0,29.90,NW,315,7.0,13.0,88,0.00,,,0.00,183.000000,,2013-07-31 22:43:00,
2013-07-31 18:53:00,69.0,65.0,29.90,NW,308,7.0,14.0,88,0.00,,,0.00,149.000000,,2013-07-31 22:53:00,
2013-07-31 19:42:00,69.0,66.0,29.89,WNW,295,0.0,0.0,89,0.00,,,0.00,90.000000,,2013-07-31 23:42:00,
2013-07-31 19:52:00,69.0,66.0,29.89,NW,304,0.0,0.0,89,0.00,,,0.00,63.000000,,2013-07-31 23:52:00,
2013-07-31 20:22:00,68.0,65.0,29.89,NW,317,0.0,0.0,89,0.00,,,0.00,19.000000,,2013-08-01 00:22:00,
2013-07-31 20:32:00,68.0,65.0,29.89,WNW,293,0.0,0.0,90,0.01,,,0.01,16.000000,,2013-08-01 00:32:00,
2013-07-31 20:43:00,68.0,66.0,29.88,NW,311,0.0,0.0,92,0.03,,,0.03,5.000000,,2013-08-01 00:43:00,
2013-07-31 20:52:00,67.0,65.0,29.88,NW,312,5.0,12.0,93,0.03,,,0.03,0.000000,,2013-08-01 00:52:00,
2013-07-31 21:03:00,66.0,62.0,29.88,North,350,6.0,18.0,87,0.03,,,0.03,0.000000,,2013-08-01 01:03:00,
2013-07-31 21:12:00,65.0,59.0,29.91,North,5,14.0,23.0,80,0.04,,,0.04,0.000000,,2013-08-01 01:12:00,
2013-07-31 21:22:00,62.0,58.0,29.91,NW,308,9.0,16.0,86,0.04,,,0.04,0.000000,,2013-08-01 01:22:00,
2013-07-31 21:33:00,61.0,58.0,29.91,North,360,6.0,15.0,89,0.18,,,0.19,0.000000,,2013-08-01 01:33:00,
2013-07-31 21:43:00,60.0,58.0,29.91,NNE,29,0.0,9.0,92,0.22,,,0.25,0.000000,,2013-08-01 01:43:00,
2013-07-31 22:02:00,60.0,58.0,29.91,NE,34,0.0,0.0,94,0.32,,,0.35,0.000000,,2013-08-01 02:02:00,
2013-07-31 22:12:00,60.0,58.0,29.90,SSE,159,0.0,0.0,94,0.33,,,0.36,0.000000,,2013-08-01 02:12:00,
2013-07-31 23:43:00,60.0,59.0,29.89,SSE,155,0.0,0.0,96,0.01,,,0.40,0.000000,,2013-08-01 03:43:00,
2013-07-31 23:53:00,60.0,59.0,29.89,SSE,155,0.0,0.0,95,0.01,,,0.40,0.000000,,2013-08-01 03:53:00,